[[{"header":{"parameterUnit":"m.s-1","parameterCategory":1,"la1":30.2991,"la2":30.254,"lo1":-89.0895,"lo2":-89.0444,"dy":0.0017,"dx":0.0017,"nx":28,"ny":28,"refTime":"2025-08-02T09:00:00:Z","depth":0,"parameterNumber":2,"parameterNumberName":"U-component_of_WINDS"},"data":[0,0,0,0,0,0,0,0,0,0,0,0,0,0,0,0,0,0,0,0,0,0,0,0,0,0,0,0,0,0,0,0,0,0,0,0,0,0,0,0,0,0,0,0,0,0,0,0,0,0,0,0,0,0,0,0,0,0,1.2233,1.2235,0,1.2364,1.2365,1.2367,1.2339,1.2337,1.2334,1.2332,1.2471,1.2477,1.2482,0,0,0,0,0,0,0,0,0,0,0,0,0,1.1968,1.1973,1.2233,1.2235,1.2236,1.2363,1.2365,1.2367,1.234,1.2337,1.2334,1.2331,1.2469,1.2476,1.2483,0,0,0,0,0,0,0,0,0,0,0,0,0,1.2089,1.1974,1.2233,1.2238,1.224,1.2363,1.2365,1.2367,1.234,1.2337,1.2333,1.233,1.2466,1.2475,1.2484,1.2612,0,0,1.2511,1.2515,0,0,0,0,0,0,0,0,1.2082,1.2099,1.2236,1.2238,1.224,1.2331,1.2322,1.245,1.2341,1.2302,1.2332,1.2328,1.2428,1.244,1.2472,1.2618,1.2624,1.2512,1.2517,1.2521,1.2524,0,0,0,0,0,0,0,1.2074,1.2093,1.2285,1.2238,1.224,1.2236,1.2249,1.2346,1.2384,1.2305,1.2304,1.2319,1.2428,1.2464,1.2475,1.2626,1.2512,1.252,1.2525,1.2529,1.2888,1.2892,0,0,0,0,0,0,1.2063,1.2086,1.2281,1.2289,1.215,1.2244,1.2259,1.2306,1.2383,1.2391,1.2322,1.2317,1.245,1.2465,1.248,1.2637,1.2521,1.253,1.2535,1.2884,1.2889,1.2894,0,0,0,0,0,0,1.2057,1.208,1.2275,1.2187,1.2212,1.2252,1.2305,1.231,1.2345,1.2395,1.2403,1.2351,1.2448,1.2467,1.258,1.2642,1.2534,1.2542,1.2879,1.2886,1.2892,1.2951,0,0,0,0,0,0,1.205,1.2078,1.2125,1.2188,1.2216,1.2371,1.2309,1.2315,1.236,1.2355,1.2424,1.2432,1.2446,1.2567,1.2589,1.2652,1.2549,1.2874,1.2882,1.289,1.2944,1.2959,1.2972,0,0,0,0,0,1.204,1.2137,1.2128,1.2151,1.2276,1.2374,1.2391,1.2404,1.2365,1.2415,1.2447,1.243,1.2631,1.2578,1.2603,1.267,1.287,1.288,1.2889,1.2938,1.2956,1.2971,0,0,0,0,0,0,1.2081,1.2145,1.2136,1.2256,1.231,1.237,1.2432,1.2422,1.2489,1.2482,1.2497,1.2513,1.2628,1.266,1.26,1.28,1.2746,1.276,1.2774,1.2792,1.2805,1.2796,1.2556,0,0,0,0,0,1.2104,1.2177,1.223,1.2331,1.2358,1.2391,1.2434,1.2439,1.2497,1.252,1.256,1.2619,1.2695,1.2745,1.2818,1.2949,1.2965,1.3007,1.3021,1.3032,1.3045,1.312,1.314,1.2925,1.2925,1.2925,0,0,1.2152,1.2197,1.2242,1.234,1.2383,1.2461,1.241,1.2493,1.2552,1.2533,1.2642,1.2674,1.274,1.2863,1.2919,1.2894,1.3108,1.3044,1.3052,1.306,1.3132,1.3152,1.317,1.2931,1.293,1.2929,0,0,1.228,1.232,1.2409,1.2454,1.2518,1.254,1.2562,1.2624,1.2644,1.2753,1.2742,1.2813,1.2944,1.2992,1.3034,1.3184,1.3172,1.3208,1.328,1.3353,1.337,1.3385,1.3441,1.3461,1.322,1.3221,1.3221,0,1.2332,1.2447,1.2457,1.2543,1.2588,1.2574,1.2667,1.271,1.2796,1.2829,1.2798,1.2964,1.3008,1.3143,1.318,1.3214,1.3242,1.32,1.3366,1.3382,1.3396,1.345,1.3471,1.3225,1.3224,1.3224,1.3223,0,1.2509,1.2589,1.2654,1.2737,1.279,1.2879,1.2906,1.2958,1.296,1.2986,1.3099,1.3151,1.3236,1.3268,1.3271,1.3406,1.3388,1.3362,1.3308,1.342,1.3471,1.3492,1.323,1.3229,1.3228,1.3227,0,0,1.2665,1.2754,1.2778,1.2817,1.2889,1.2953,1.3043,1.3125,1.3171,1.3232,1.331,1.3422,1.3399,1.3447,1.3455,1.3519,1.3639,1.3486,1.3488,1.3514,1.3794,1.3814,1.3838,1.3631,1.3635,1.3638,1.379,0,1.2801,1.2957,1.2971,1.3113,1.3189,1.3178,1.3257,1.3312,1.3339,1.341,1.344,1.3521,1.3483,1.3512,1.3575,1.3611,1.3695,1.36,1.3707,1.371,1.3691,1.3864,1.3885,1.4025,1.3809,1.3813,1.3815,0,1.298,1.3046,1.3195,1.3259,1.3292,1.3362,1.344,1.3507,1.357,1.3586,1.364,1.3641,1.3737,1.3679,1.3814,1.3749,1.3794,1.3818,1.3824,1.3836,1.377,1.3882,1.407,1.4091,1.3846,1.3844,1.3841,0,1.3081,1.3207,1.3314,1.3347,1.3424,1.3475,1.351,1.3569,1.3619,1.3688,1.3721,1.3801,1.3845,1.3908,1.3932,1.3887,1.4067,1.401,1.4085,1.4085,1.4123,1.4121,1.4323,1.415,1.415,1.4149,1.4149,0,1.3232,1.3324,1.3361,1.3426,1.3531,1.3547,1.3651,1.3684,1.3737,1.3811,1.3808,1.3878,1.3904,1.398,1.3999,1.411,1.4129,1.4147,1.4151,1.4148,1.4146,1.4178,1.417,1.4155,1.4154,1.4153,1.4152,0,1.3363,1.339,1.3506,1.357,1.3589,1.3663,1.372,1.3785,1.3812,1.3906,1.3929,1.3972,1.4061,1.4091,1.4199,1.4212,1.4342,1.4337,1.432,1.4321,1.4395,1.4388,1.4626,1.4659,1.4463,1.4465,1.4466,0,1.3457,1.3528,1.3601,1.3649,1.3686,1.3765,1.3815,1.3836,1.3889,1.3969,1.4025,1.4113,1.4184,1.4328,1.4371,1.4454,1.4453,1.453,1.4465,1.4461,1.4457,1.4453,1.4461,1.4543,1.4545,1.4546,1.4548,0,1.3624,1.3635,1.3707,1.3786,1.3846,1.3909,1.397,1.4011,1.4041,1.4102,1.4192,1.4248,1.4359,1.4447,1.4533,1.4572,1.4567,1.4568,1.459,1.4588,1.4576,1.4586,1.4355,1.4562,1.4561,1.456,1.4559,1.4558,1.3741,1.3805,1.3866,1.3948,1.3996,1.4054,1.4119,1.4155,1.423,1.4321,1.4329,1.4428,1.4493,1.4608,1.4651,1.4731,1.4709,1.4741,1.4749,1.4757,1.4764,1.4563,1.4746,1.4746,1.4746,1.4745,1.4745,0,1.3909,1.3949,1.4024,1.4109,1.4175,1.4162,1.423,1.4286,1.4372,1.4433,1.4504,1.461,1.4697,1.4747,1.4835,1.4889,1.4889,1.4912,1.4909,1.4919,1.4777,1.4749,1.4911,1.4911,1.4911,1.4911,1.4911,1.4911,1.4004,1.4112,1.4131,1.4265,1.4304,1.4399,1.444,1.4495,1.4543,1.4661,1.4733,1.4765,1.4823,1.4916,1.4996,1.5009,1.5043,1.5068,1.5079,1.4945,1.4928,1.4912,1.4887,1.5074,1.5075,1.5215,1.5216,1.5217]},{"header":{"parameterUnit":"m.s-1","parameterCategory":1,"la1":30.2991,"la2":30.254,"lo1":-89.0895,"lo2":-89.0444,"dy":0.0017,"dx":0.0017,"nx":28,"ny":28,"refTime":"2025-08-02T09:00:00:Z","depth":0,"parameterNumber":3,"parameterNumberName":"V-component_of_WINDS"},"data":[0,0,0,0,0,0,0,0,0,0,0,0,0,0,0,0,0,0,0,0,0,0,0,0,0,0,0,0,0,0,0,0,0,0,0,0,0,0,0,0,0,0,0,0,0,0,0,0,0,0,0,0,0,0,0,0,0,0,-1.1812,-1.1811,0,-1.1681,-1.1679,-1.1678,-1.1653,-1.1654,-1.1655,-1.1656,-1.151,-1.1505,-1.1501,0,0,0,0,0,0,0,0,0,0,0,0,0,-1.2031,-1.2027,-1.1813,-1.1811,-1.1809,-1.1681,-1.1679,-1.1677,-1.1652,-1.1654,-1.1655,-1.1656,-1.1512,-1.1506,-1.15,0,0,0,0,0,0,0,0,0,0,0,0,0,-1.1921,-1.2026,-1.1813,-1.1782,-1.1778,-1.1681,-1.1679,-1.1677,-1.1652,-1.1654,-1.1655,-1.1657,-1.1514,-1.1506,-1.1499,-1.1422,0,0,-1.1477,-1.1474,0,0,0,0,0,0,0,0,-1.1927,-1.1913,-1.1788,-1.1784,-1.1779,-1.1685,-1.1703,-1.1591,-1.1652,-1.1699,-1.1656,-1.1658,-1.1566,-1.1555,-1.1526,-1.1415,-1.1408,-1.1476,-1.1472,-1.1469,-1.1467,0,0,0,0,0,0,0,-1.1935,-1.1918,-1.176,-1.1786,-1.1781,-1.177,-1.1757,-1.1681,-1.1625,-1.1695,-1.1693,-1.1679,-1.1564,-1.1533,-1.1522,-1.1406,-1.1476,-1.147,-1.1465,-1.1462,-1.122,-1.1218,0,0,0,0,0,0,-1.195,-1.1925,-1.1764,-1.1756,-1.1859,-1.1765,-1.175,-1.1713,-1.1626,-1.1614,-1.1677,-1.1678,-1.1545,-1.1531,-1.1517,-1.1417,-1.1469,-1.1462,-1.1458,-1.1222,-1.1219,-1.1217,0,0,0,0,0,0,-1.1955,-1.1936,-1.177,-1.184,-1.1818,-1.176,-1.1719,-1.171,-1.1679,-1.1612,-1.1601,-1.1657,-1.1546,-1.1528,-1.1445,-1.1412,-1.1458,-1.1452,-1.1224,-1.1221,-1.1218,-1.1219,0,0,0,0,0,0,-1.1961,-1.1938,-1.191,-1.184,-1.1815,-1.1703,-1.1717,-1.1706,-1.1668,-1.1667,-1.159,-1.1579,-1.1546,-1.1456,-1.1438,-1.1403,-1.1446,-1.1227,-1.1223,-1.1219,-1.1221,-1.1216,-1.1212,0,0,0,0,0,-1.1969,-1.1914,-1.1909,-1.189,-1.178,-1.1702,-1.1687,-1.1653,-1.1666,-1.1635,-1.1592,-1.1581,-1.1419,-1.1448,-1.1427,-1.1389,-1.1228,-1.1224,-1.1219,-1.1224,-1.1217,-1.1212,0,0,0,0,0,0,-1.1979,-1.1905,-1.1898,-1.182,-1.1768,-1.1698,-1.1659,-1.1648,-1.1588,-1.159,-1.1546,-1.1529,-1.1448,-1.1411,-1.1444,-1.1307,-1.1324,-1.1315,-1.1335,-1.1328,-1.1323,-1.1332,-1.144,0,0,0,0,0,-1.1973,-1.192,-1.1856,-1.1793,-1.1767,-1.1718,-1.1682,-1.1661,-1.1603,-1.158,-1.1531,-1.1473,-1.1408,-1.1366,-1.1304,-1.1217,-1.1197,-1.118,-1.1175,-1.1171,-1.1163,-1.111,-1.11,-1.1202,-1.1202,-1.1202,0,0,-1.1959,-1.1911,-1.1879,-1.1794,-1.1751,-1.1692,-1.1699,-1.1638,-1.1592,-1.157,-1.1489,-1.1451,-1.1382,-1.1297,-1.1256,-1.1263,-1.1131,-1.1165,-1.1163,-1.1156,-1.1104,-1.1094,-1.1086,-1.1199,-1.1199,-1.12,0,0,-1.1902,-1.1863,-1.1804,-1.1761,-1.1697,-1.1664,-1.165,-1.1582,-1.1556,-1.1476,-1.1457,-1.14,-1.1291,-1.1242,-1.1203,-1.1126,-1.1112,-1.1106,-1.1079,-1.1028,-1.102,-1.1013,-1.0981,-1.0971,-1.1099,-1.1099,-1.1099,0,-1.189,-1.1805,-1.1775,-1.1713,-1.1674,-1.1655,-1.1592,-1.1551,-1.1468,-1.1439,-1.1449,-1.131,-1.1263,-1.1164,-1.1145,-1.1115,-1.1094,-1.1114,-1.1025,-1.1017,-1.1009,-1.0978,-1.0967,-1.1098,-1.1098,-1.1098,-1.1098,0,-1.1793,-1.1733,-1.1693,-1.1617,-1.1573,-1.1512,-1.1468,-1.1427,-1.1408,-1.1373,-1.1289,-1.1232,-1.1155,-1.1131,-1.1111,-1.1027,-1.1032,-1.1034,-1.1049,-1.1,-1.097,-1.0958,-1.1098,-1.1098,-1.1098,-1.1098,0,0,-1.1738,-1.1645,-1.1631,-1.1594,-1.1521,-1.1473,-1.1408,-1.1337,-1.1301,-1.1244,-1.1185,-1.1093,-1.1094,-1.1049,-1.1024,-1.098,-1.0917,-1.0985,-1.0983,-1.0971,-1.0815,-1.0812,-1.0799,-1.0909,-1.0906,-1.0905,-1.0819,0,-1.1669,-1.1558,-1.1528,-1.1432,-1.1374,-1.1354,-1.1297,-1.1243,-1.1209,-1.1151,-1.1111,-1.1045,-1.1052,-1.1025,-1.098,-1.0934,-1.0884,-1.094,-1.0849,-1.0846,-1.0864,-1.0784,-1.0782,-1.0704,-1.0808,-1.0806,-1.0805,0,-1.1575,-1.1519,-1.1418,-1.135,-1.1324,-1.1275,-1.1205,-1.1152,-1.1089,-1.1066,-1.1017,-1.0995,-1.0922,-1.0944,-1.0841,-1.0879,-1.084,-1.0812,-1.0808,-1.0795,-1.082,-1.0766,-1.0679,-1.0666,-1.0787,-1.0788,-1.0789,0,-1.154,-1.1439,-1.1365,-1.1335,-1.1255,-1.1219,-1.1184,-1.1123,-1.1081,-1.1019,-1.099,-1.092,-1.088,-1.0824,-1.0782,-1.0803,-1.068,-1.07,-1.0655,-1.0655,-1.0627,-1.0629,-1.0529,-1.0608,-1.0609,-1.0609,-1.0609,0,-1.1465,-1.1403,-1.1348,-1.1302,-1.123,-1.1194,-1.1123,-1.1085,-1.1031,-1.0974,-1.0952,-1.0898,-1.0848,-1.0785,-1.0752,-1.0669,-1.0652,-1.0627,-1.0618,-1.0627,-1.063,-1.0598,-1.0601,-1.0606,-1.0606,-1.0607,-1.0607,0,-1.1413,-1.1375,-1.1292,-1.1223,-1.1204,-1.1154,-1.1093,-1.1045,-1.101,-1.0937,-1.0918,-1.086,-1.0786,-1.074,-1.0644,-1.0621,-1.0528,-1.0523,-1.055,-1.0546,-1.0502,-1.0505,-1.0376,-1.0355,-1.0451,-1.0451,-1.045,0,-1.1367,-1.1319,-1.1245,-1.1207,-1.1172,-1.1111,-1.1068,-1.103,-1.0985,-1.0909,-1.0869,-1.0794,-1.0732,-1.0612,-1.0559,-1.0485,-1.0475,-1.0435,-1.0464,-1.0473,-1.0469,-1.0471,-1.0464,-1.0429,-1.0428,-1.0428,-1.0427,0,-1.1286,-1.1269,-1.1211,-1.1145,-1.1095,-1.104,-1.0985,-1.0954,-1.0906,-1.0856,-1.0782,-1.0733,-1.0637,-1.056,-1.0481,-1.0439,-1.0422,-1.0419,-1.0404,-1.0411,-1.0427,-1.0413,-1.0533,-1.0421,-1.0422,-1.0422,-1.0423,-1.0423,-1.1232,-1.1188,-1.1129,-1.1063,-1.1018,-1.0967,-1.0918,-1.0877,-1.0815,-1.0735,-1.0716,-1.0636,-1.057,-1.0463,-1.042,-1.0353,-1.0359,-1.0338,-1.0332,-1.0326,-1.0323,-1.0441,-1.0339,-1.0339,-1.0339,-1.034,-1.034,0,-1.1147,-1.1109,-1.1049,-1.0974,-1.0921,-1.0916,-1.0853,-1.0808,-1.074,-1.0682,-1.0622,-1.0533,-1.0458,-1.04,-1.0322,-1.028,-1.027,-1.026,-1.0261,-1.025,-1.0325,-1.0344,-1.0269,-1.0269,-1.0269,-1.0269,-1.0269,-1.0269,-1.1097,-1.102,-1.0995,-1.0893,-1.0854,-1.0778,-1.0743,-1.0693,-1.0647,-1.0551,-1.049,-1.0454,-1.0393,-1.0311,-1.024,-1.0224,-1.0195,-1.0186,-1.0168,-1.0238,-1.0246,-1.0253,-1.027,-1.0181,-1.018,-1.0098,-1.0097,-1.0096]}]]